Retour au catalogue

RANGE A

ActifScienceSSO
NORAD 43773·PAYLOAD·🇺🇸 United States

Lancé Dec 3, 2018 depuis Vandenberg Space Force Base

Loading…

Prochains Passages (prochaines 24 heures)

TLE

FraisSource: Space-Track

Époque: Sep 14, 2026, 13:13 UTC

1 43773U 18099R   26257.55115842  .00003187  00000-0  17872-3 0  9991
2 43773  97.3886 297.5181 0011219  45.1702 315.0440 15.14024976426012

Suivez RANGE A en temps réel avec AllMySat

Download on the App Store